COSMOS 1255

Satellite information

Favourite Embed

Satellite Type and Status

PAYLOADIN ORBIT

Key statistics

Satellite COSMOS 1255 at a glance.

Uptime

16195

Days in orbit

Revolutions

≈ 12.5

Per day

Orbit

LEO

Low Earth Orbit

Inclination

74.0

Latest

Satellite identification and parameters

Extended collection of information and parameters for COSMOS 1255.

Object identification

Identified? True

Debris? False

Object name: COSMOS 1255

International designator: 1981-022F

Object number (NORAD): 12325

Object ID (CCSDS): 12325

Country: COMMONWEALTH OF INDEPENDENT STATES (CIS)

Current information (Y/N): Y

RCS size: MEDIUM

Orbital parameters

Period: 115.063 minutes

Inclination: 74.0309 deg

SMA: 7836.427 km

Apoapsis: 1471.779 km

Periapsis: 1444.806 km

RAAN: 9.9171 deg

Eccentricy: 0.001721

Argument of periapsis: 190.0015 deg

Mean anomaly: 278.458 deg

Mean motion: 12.51484865 rev/day

Mean motion (dot): -0.00000001 rev/day2

B* drag term: 0.000099011 1/REarth

Two-line elements (TLE)

Creation date: July 8, 2025, 2:27 a.m.

Reference frame: TEME

Reference center: EARTH

Epoch: July 7, 2025, 9:47 p.m. UTC

TLE line 0: 0 COSMOS 1255

TLE line 1: 1 12325U 81022F 25188.90780656 -.00000001 00000-0 99011-4 0 9997

TLE line 2: 2 12325 74.0309 9.9171 0017210 190.0015 278.4580 12.51484865 25513

Live tracking on map

Real-time ground track for satellite COSMOS 1255.

In-orbit conjunctions

A list of the most updated potential collisions computed for object COSMOS 1255.

Target Orbit TCA Probability of collision Miss distance Type
COSMOS 1823 DEB LEO 2025-01-04 15:01:28 0.0001218282 39.0 (m) DEBRIS

Associated space launch

Military communications satellites

COSMOS 1255 was lifted into orbit during the mission ‘Kosmos-3M | Strela-1M 209-216’, on board a Kosmos-3M space rocket.

The launch took place on March 6, 1981, 11:31 a.m. from 132/2.

For more information about the launch, click the button.

Launch to space Kosmos-3M | Strela-1M 209-216
Kosmos-3M | Strela-1M 209-216

Agency: N/A

Status: Launch Successful

Launch date: March 6, 1981, 11:31 a.m. UTC

Rocket: Kosmos-3M

Launch pad: 132/2

Location: Plesetsk Cosmodrome, Russian Federation

...

Latest news about this satellite

There are no fresh news available about this satellite. Check back as we update our databases every day.


Newsletter sign-up

Weekly statistics, charts and insights to help you stay on top of the space industry.